When you browse on this site, cookies collect data to enhance your experience and personalize the content and advertising you see.
Visit our Privacy Policy to learn more. By continuing to use the site, you agree to this use of cookies and data.
  • In Lithuania
  • List of Countries
  • For 7 days
  • Water Temperature
  • Satellite Maps
  • Weather Map
  • Weather Widgets
  • user-avatar
    Login

    Hourly Weather Adelaide

    Today, 24 April, Wednesday

    Time Temperature Precipitation Wind Pressure Humidity
    00:00 +14°C° 0 mm 2 mps 765 mmHg 85%
    01:00 +14°C° 0 mm 2 mps 765 mmHg 86%
    02:00 +14°C° 0 mm 2 mps 765 mmHg 87%
    03:00 +14°C° 0 mm 2 mps 765 mmHg 88%
    04:00 +13°C° 0 mm 1 mps 765 mmHg 88%
    05:00 +13°C° 0 mm 1 mps 765 mmHg 88%
    06:00 +13°C° 0 mm 1 mps 765 mmHg 88%
    07:00 +15°C° 0 mm 1 mps 765 mmHg 79%
    08:00 +18°C° 0 mm 1 mps 765 mmHg 71%
    09:00 +20°C° 0 mm 1 mps 766 mmHg 64%
    10:00 +20°C° 0 mm 2 mps 765 mmHg 58%
    11:00 +21°C° 0 mm 2 mps 765 mmHg 53%
    12:00 +22°C° 0 mm 3 mps 765 mmHg 47%
    13:00 +21°C° 0 mm 3 mps 765 mmHg 50%
    14:00 +21°C° 0 mm 3 mps 765 mmHg 52%
    15:00 +20°C° 0 mm 4 mps 764 mmHg 59%
    16:00 +19°C° 0 mm 4 mps 765 mmHg 64%
    17:00 +18°C° 0 mm 3 mps 765 mmHg 69%
    18:00 +18°C° 0 mm 3 mps 765 mmHg 74%
    19:00 +17°C° 0 mm 2 mps 765 mmHg 78%
    20:00 +16°C° 0 mm 2 mps 765 mmHg 81%
    21:00 +16°C° 0 mm 2 mps 765 mmHg 84%
    22:00 +15°C° 0 mm 2 mps 765 mmHg 85%
    23:00 +15°C° 0 mm 2 mps 765 mmHg 86%

    Tomorrow, 25 April, Thursday

    Time Temperature Precipitation Wind Pressure Humidity
    00:00 +15°C° 0 mm 1 mps 765 mmHg 86%
    01:00 +15°C° 0 mm 1 mps 765 mmHg 87%
    02:00 +14°C° 0 mm 1 mps 765 mmHg 88%
    03:00 +14°C° 0 mm 1 mps 764 mmHg 88%
    04:00 +14°C° 0 mm 1 mps 764 mmHg 88%
    05:00 +14°C° 0 mm 1 mps 764 mmHg 88%
    06:00 +14°C° 0 mm 1 mps 764 mmHg 88%
    07:00 +16°C° 0 mm 1 mps 765 mmHg 81%
    08:00 +17°C° 0 mm 2 mps 765 mmHg 74%
    09:00 +18°C° 0 mm 2 mps 765 mmHg 67%
    10:00 +19°C° 0 mm 2 mps 765 mmHg 63%
    11:00 +20°C° 0 mm 3 mps 764 mmHg 60%
    12:00 +20°C° 0 mm 3 mps 764 mmHg 56%
    13:00 +20°C° 0 mm 3 mps 763 mmHg 57%
    14:00 +20°C° 0 mm 4 mps 763 mmHg 58%
    15:00 +20°C° 0 mm 4 mps 762 mmHg 60%
    16:00 +19°C° 0 mm 4 mps 762 mmHg 64%
    17:00 +18°C° 0 mm 4 mps 762 mmHg 69%
    18:00 +17°C° 0 mm 4 mps 762 mmHg 74%
    19:00 +17°C° 0 mm 4 mps 763 mmHg 75%
    20:00 +16°C° 0 mm 5 mps 763 mmHg 75%
    21:00 +15°C° 0 mm 5 mps 763 mmHg 75%
    22:00 +15°C° 0 mm 5 mps 763 mmHg 75%
    23:00 +16°C° 0 mm 5 mps 763 mmHg 75%

    Day after tomorrow, 26 April, Friday

    Time Temperature Precipitation Wind Pressure Humidity
    00:00 +16°C° 0 mm 5 mps 763 mmHg 74%
    01:00 +16°C° 0 mm 5 mps 763 mmHg 74%
    02:00 +16°C° 0 mm 5 mps 762 mmHg 73%
    03:00 +16°C° 0 mm 5 mps 762 mmHg 73%
    04:00 +16°C° 0.1 mm 5 mps 762 mmHg 73%
    05:00 +15°C° 0.1 mm 5 mps 763 mmHg 72%
    06:00 +15°C° 0.1 mm 5 mps 763 mmHg 72%
    07:00 +15°C° 0 mm 6 mps 764 mmHg 68%
    08:00 +15°C° 0 mm 6 mps 764 mmHg 64%
    09:00 +16°C° 0 mm 6 mps 765 mmHg 61%
    10:00 +15°C° 0 mm 6 mps 765 mmHg 59%
    11:00 +15°C° 0 mm 6 mps 765 mmHg 57%
    12:00 +15°C° 0 mm 6 mps 765 mmHg 55%
    13:00 +15°C° 0 mm 6 mps 765 mmHg 55%
    14:00 +15°C° 0 mm 6 mps 765 mmHg 55%
    15:00 +15°C° 0 mm 5 mps 765 mmHg 55%
    16:00 +14°C° 0 mm 5 mps 766 mmHg 57%
    17:00 +13°C° 0 mm 4 mps 766 mmHg 59%
    18:00 +13°C° 0 mm 4 mps 766 mmHg 61%
    19:00 +12°C° 0 mm 4 mps 767 mmHg 63%
    20:00 +12°C° 0 mm 3 mps 767 mmHg 64%
    21:00 +12°C° 0 mm 3 mps 768 mmHg 66%
    22:00 +12°C° 0 mm 3 mps 768 mmHg 68%
    23:00 +12°C° 0 mm 2 mps 768 mmHg 69%

    27 April, Saturday

    Time Temperature Precipitation Wind Pressure Humidity
    00:00 +12°C° 0 mm 2 mps 768 mmHg 70%
    01:00 +12°C° 0 mm 2 mps 768 mmHg 72%
    02:00 +12°C° 0 mm 2 mps 768 mmHg 73%
    03:00 +10°C° 0 mm 2 mps 768 mmHg 75%
    04:00 +11°C° 0 mm 1 mps 768 mmHg 76%
    05:00 +11°C° 0 mm 1 mps 768 mmHg 77%
    06:00 +11°C° 0 mm 1 mps 769 mmHg 78%
    07:00 +13°C° 0 mm 1 mps 769 mmHg 71%
    08:00 +14°C° 0 mm 1 mps 769 mmHg 64%
    09:00 +16°C° 0 mm 1 mps 770 mmHg 57%
    10:00 +16°C° 0 mm 1 mps 769 mmHg 57%
    11:00 +16°C° 0 mm 2 mps 769 mmHg 57%
    12:00 +16°C° 0 mm 2 mps 769 mmHg 57%
    13:00 +17°C° 0 mm 2 mps 769 mmHg 56%
    14:00 +17°C° 0 mm 2 mps 768 mmHg 56%
    15:00 +17°C° 0 mm 3 mps 768 mmHg 55%
    16:00 +16°C° 0 mm 2 mps 768 mmHg 60%
    17:00 +15°C° 0 mm 2 mps 768 mmHg 65%
    18:00 +14°C° 0 mm 2 mps 768 mmHg 70%
    19:00 +13°C° 0 mm 1 mps 768 mmHg 72%
    20:00 +13°C° 0 mm 1 mps 768 mmHg 74%
    21:00 +13°C° 0 mm 1 mps 769 mmHg 76%
    22:00 +13°C° 0 mm 1 mps 768 mmHg 78%
    23:00 +13°C° 0 mm 1 mps 768 mmHg 80%

    28 April, Sunday

    Time Temperature Precipitation Wind Pressure Humidity
    00:00 +13°C° 0 mm 1 mps 768 mmHg 82%
    01:00 +12°C° 0 mm 1 mps 768 mmHg 83%
    02:00 +12°C° 0 mm 1 mps 767 mmHg 85%
    03:00 +12°C° 0 mm 1 mps 767 mmHg 86%
    04:00 +12°C° 0 mm 1 mps 767 mmHg 87%
    05:00 +12°C° 0 mm 1 mps 767 mmHg 87%
    06:00 +12°C° 0 mm 2 mps 768 mmHg 87%
    07:00 +14°C° 0 mm 2 mps 768 mmHg 80%
    08:00 +15°C° 0 mm 2 mps 768 mmHg 73%
    09:00 +17°C° 0 mm 3 mps 769 mmHg 67%
    10:00 +18°C° 0 mm 3 mps 768 mmHg 63%
    11:00 +18°C° 0 mm 3 mps 768 mmHg 59%
    12:00 +19°C° 0 mm 3 mps 768 mmHg 56%
    13:00 +19°C° 0 mm 3 mps 767 mmHg 56%
    14:00 +19°C° 0 mm 3 mps 767 mmHg 55%
    15:00 +19°C° 0 mm 3 mps 767 mmHg 55%
    16:00 +18°C° 0 mm 2 mps 767 mmHg 61%
    17:00 +17°C° 0 mm 2 mps 767 mmHg 67%
    18:00 +15°C° 0 mm 2 mps 767 mmHg 73%
    19:00 +15°C° 0 mm 1 mps 767 mmHg 76%
    20:00 +14°C° 0 mm 1 mps 767 mmHg 79%
    21:00 +14°C° 0 mm 1 mps 767 mmHg 82%
    22:00 +14°C° 0 mm 1 mps 767 mmHg 84%
    23:00 +13°C° 0 mm 1 mps 767 mmHg 85%

    29 April, Monday

    Time Temperature Precipitation Wind Pressure Humidity
    00:00 +13°C° 0 mm 1 mps 767 mmHg 87%
    01:00 +13°C° 0 mm 1 mps 767 mmHg 88%
    02:00 +12°C° 0 mm 1 mps 767 mmHg 88%
    03:00 +12°C° 0 mm 1 mps 766 mmHg 89%
    04:00 +12°C° 0 mm 1 mps 767 mmHg 89%
    05:00 +12°C° 0 mm 1 mps 767 mmHg 89%
    06:00 +12°C° 0 mm 2 mps 767 mmHg 89%
    07:00 +14°C° 0 mm 2 mps 767 mmHg 80%
    08:00 +15°C° 0 mm 2 mps 767 mmHg 72%
    09:00 +17°C° 0 mm 2 mps 767 mmHg 64%
    10:00 +19°C° 0 mm 2 mps 766 mmHg 56%
    11:00 +20°C° 0 mm 2 mps 766 mmHg 47%
    12:00 +23°C° 0 mm 1 mps 765 mmHg 39%
    13:00 +23°C° 0 mm 1 mps 764 mmHg 38%
    14:00 +23°C° 0 mm 2 mps 764 mmHg 36%
    15:00 +23°C° 0 mm 2 mps 763 mmHg 35%
    16:00 +22°C° 0 mm 1 mps 763 mmHg 40%
    17:00 +20°C° 0 mm 1 mps 763 mmHg 45%
    18:00 +18°C° 0 mm 1 mps 763 mmHg 50%
    19:00 +18°C° 0 mm 1 mps 763 mmHg 50%
    20:00 +16°C° 0 mm 2 mps 763 mmHg 50%
    21:00 +16°C° 0 mm 2 mps 763 mmHg 51%
    22:00 +16°C° 0 mm 2 mps 762 mmHg 51%
    23:00 +16°C° 0 mm 3 mps 762 mmHg 50%
    Show more